Weather History for Hot Springs, AR

Change the Weather History Date:

Sunday, May 19, 2013

  Actual Average Record
Temperature  
Mean Temperature 78 °F -  
Max Temperature 86 °F 83 °F 94 °F (1956)
Min Temperature 71 °F 59 °F 43 °F (2002)
Cooling Degree Days 14    
Growing Degree Days 28 (Base 50)    
Moisture  
Dew Point 68 °F    
Average Humidity 71    
Maximum Humidity 90    
Minimum Humidity 55    
Precipitation  
Precipitation 0.00 in - - ()
Sea Level Pressure  
Sea Level Pressure 29.86 in    
Wind  
Wind Speed 7 mph (South)    
Max Wind Speed 13 mph    
Max Gust Speed 24 mph    
Visibility 10 miles    
Events      
Averages and records for this station are not official NWS values.
T = Trace of Precipitation, MM = Missing Value Source: NWS Daily Summary

Daily Weather History Graph

Daily Weather History Graph

Search for Another Location

Airport:

Trip Planner

Search our weather history database for the weather conditions in past years. The results will help you decide how hot, cold, wet, or windy it might be!

Date:

Astronomy

May. 19, 2013 Rise Set
Actual Time 6:06 AM CDT 8:11 PM CDT
Civil Twilight 5:38 AM CDT 8:39 PM CDT
Nautical Twilight 5:04 AM CDT 9:13 PM CDT
Astronomical Twilight 4:27 AM CDT 9:50 PM CDT
Moon 2:30 PM CDT (5/19) 2:15 AM CDT (5/19)
Length of Visible Light 15h 00m
Length of Day
14h 04m
Waxing Gibbous, 65% of the Moon is Illuminated
May 19
Waxing Gibbous
May 24
Full
May 31
Last Quarter
Jun 8
New
Jun 16
First Quarter

Hourly Weather History & Observations

Time (CDT) Temp. Heat Index Dew Point Humidity Pressure Visibility Wind Dir Wind Speed Gust Speed Precip Events Conditions
12:53 AM 79.0 °F - 70.0 °F 74% 29.88 in 10.0 mi Variable 5.8 mph - N/A   Clear
1:53 AM 77.0 °F - 70.0 °F 79% 29.87 in 10.0 mi SSW 8.1 mph 19.6 mph N/A   Clear
2:53 AM 75.9 °F - 69.1 °F 79% 29.87 in 10.0 mi SSW 6.9 mph - N/A   Clear
3:53 AM 73.9 °F - 69.1 °F 85% 29.87 in 10.0 mi SW 3.5 mph - N/A   Clear
4:53 AM 72.0 °F - 68.0 °F 87% 29.86 in 10.0 mi SE 3.5 mph - N/A   Clear
5:53 AM 71.1 °F - 68.0 °F 90% 29.88 in 8.0 mi Calm Calm - N/A   Clear
6:53 AM 71.6 °F - 68.0 °F 88% 29.92 in 6.0 mi ESE 3.5 mph - N/A   Clear
7:53 AM 72.0 °F - 66.9 °F 84% 29.91 in 8.0 mi Variable 4.6 mph - N/A   Clear
8:26 AM 71.6 °F - 66.2 °F 83% 29.93 in 8.0 mi South 4.6 mph - N/A   Mostly Cloudy
8:53 AM 73.0 °F - 66.9 °F 81% 29.91 in 10.0 mi SW 6.9 mph - N/A   Mostly Cloudy
9:53 AM 75.0 °F - 66.0 °F 73% 29.91 in 10.0 mi SSW 9.2 mph - N/A   Mostly Cloudy
10:15 AM 75.2 °F - 66.2 °F 73% 29.93 in 10.0 mi SSW 6.9 mph - N/A   Scattered Clouds
10:53 AM 77.0 °F - 66.0 °F 69% 29.91 in 10.0 mi SSW 10.4 mph 18.4 mph N/A   Scattered Clouds
11:53 AM 81.0 °F 83.3 °F 66.9 °F 62% 29.90 in 10.0 mi South 10.4 mph 16.1 mph N/A   Scattered Clouds
12:53 PM 82.0 °F 84.9 °F 68.0 °F 62% 29.86 in 10.0 mi South 9.2 mph - N/A   Partly Cloudy
1:53 PM 84.2 °F 86.6 °F 66.2 °F 55% 29.86 in 10.0 mi South 11.5 mph - N/A   Clear
2:53 PM 84.2 °F 86.6 °F 66.2 °F 55% 29.85 in 10.0 mi South 12.7 mph 23.0 mph N/A   Clear
3:53 PM 86.0 °F 89.4 °F 68.0 °F 55% 29.82 in 10.0 mi SSW 9.2 mph 20.7 mph N/A   Clear
4:53 PM 86.0 °F 89.4 °F 68.0 °F 55% 29.80 in 10.0 mi SSW 10.4 mph 19.6 mph N/A   Clear
5:53 PM 84.9 °F 88.2 °F 68.0 °F 57% 29.78 in 10.0 mi South 12.7 mph - N/A   Clear
6:53 PM 84.0 °F 86.5 °F 66.9 °F 56% 29.78 in 10.0 mi SSE 10.4 mph 24.2 mph N/A   Clear
7:53 PM 82.0 °F 84.9 °F 68.0 °F 62% 29.78 in 10.0 mi SSE 6.9 mph - N/A   Clear
8:53 PM 80.1 °F 82.7 °F 68.0 °F 67% 29.81 in 10.0 mi SSE 5.8 mph - N/A   Clear
9:53 PM 80.1 °F 82.7 °F 68.0 °F 67% 29.82 in 10.0 mi South 6.9 mph - N/A   Clear
10:53 PM 79.0 °F - 68.0 °F 69% 29.83 in 10.0 mi Variable 5.8 mph - N/A   Clear
11:53 PM 78.1 °F - 66.9 °F 68% 29.83 in 10.0 mi South 11.5 mph 23.0 mph N/A   Clear